Location: Casa Rossa
(45.2389°N, 12.2056°E)
Time: 04:32:05
(UTC+00:00)

Cosmos 1356 - Pass Details

Date: 14 July 2020
Orbit: 443 x 447 km, 81.1° (Epoch: 11 August)

Event Time Altitude Azimuth Distance (km) Brightness Sun altitude
Exits shadow 02:04:47 22° 200° (SSW) 1,040 4.7 -13.0°
Maximum altitude 02:06:54 72° 282° (WNW) 475 3.4 -12.8°
Drops below altitude 10° 02:10:21 10° 7° (N) 1,583 7.1 -12.4°
Sets 02:12:26 0° 9° (N) 2,459 8.2 -12.2°
